Flag for Germany Weather past 2 weeks in Nürburg, Rhineland-Palatinate, Germany

Now
51 °F

Fog.


Feels Like: 51 °F
Forecast: 49 / 56 °F
Wind: 2 mph from Southwest

Location: Nuerburg-Barweiler

Current Time: Oct 25, 2014 at 8:39:38 PM

Latest Report: Oct 25, 2014 at 8:00 PM


Visibility: 2 mi

Pressure: 30.19 "Hg

Humidity: 98%

Dew point: 50 °F

Location of NürburgLocation

Historic Weather in Nürburg — Graph

°F

Nürburg temperature yesterday

Maximum temperature yesterday: 53 °F (at 4:00 PM)
Minimum temperature yesterday: 46 °F (at 9:00 AM)
Average temperature yesterday: 48 °F

Past Weeks' High & Low Weather Summary

 TemperatureHumidityPressure
High67 °F (Oct 18, 4:00 PM)100% (Oct 11, 8:00 AM)30.27 "Hg (Oct 11, 8:00 AM)
Low38 °F (Oct 22, 9:00 AM)60% (Oct 14, 4:00 PM)29.59 "Hg (Oct 21, 4:00 PM)
Average52 °F89%29.96 "Hg
* Reported Oct 10 7:00 PM — Oct 25 7:00 PM, Nürburg, Weather by CustomWeather, © 2014

Note: Actual official high and low records may vary slightly from our data, if they occured in-between our weather recording intervals... More about our weather records

Advertising

Nürburg weather history for previous 24 hours

 ConditionsComfort  
Time TempWeatherWind HumidityBarometerVisibility
7:00 PM
Oct 25
51 °FLow clouds.3 mph97%30.17 "Hg3 mi
6:00 PM51 °FLow clouds.2 mph96%30.15 "Hg6 mi
5:00 PM52 °FLow clouds.3 mph95%30.14 "Hg5 mi
4:00 PM52 °FLow clouds.3 mph95%30.14 "Hg6 mi
3:00 PM52 °FFog.2 mph95%30.13 "Hg4 mi
2:00 PM51 °FFog.3 mph97%30.12 "Hg3 mi
1:00 PM51 °FLow clouds.3 mph96%30.12 "Hg9 mi
12:00 PM50 °FLow clouds.2 mph97%30.12 "Hg6 mi
11:00 AM49 °FLow clouds.2 mph98%30.12 "Hg4 mi
10:00 AM47 °FDrizzle. Low clouds.3 mph98%30.11 "Hg3 mi
9:00 AM47 °FDrizzle. Low clouds.2 mph98%30.11 "Hg1 mi
8:00 AM47 °FLow clouds.2 mph98%30.09 "Hg5 mi
7:00 AM47 °FLow clouds.3 mph97%30.08 "Hg9 mi
6:00 AM46 °FLow clouds.3 mph97%30.08 "Hg11 mi
5:00 AMN/APassing clouds.9 mphN/AN/A8 mi
4:00 AM46 °FRain. Low clouds.3 mph95%30.08 "Hg2 mi
3:00 AM46 °FRain. Low clouds.3 mph91%30.09 "Hg4 mi
2:00 AM47 °FOvercast.2 mph82%30.09 "Hg15 mi
1:00 AM47 °FOvercast.2 mph85%30.10 "Hg11 mi
12:00 AM47 °FLight rain. Overcast.2 mph86%30.09 "Hg7 mi
11:00 PM
Oct 24
47 °FOvercast.3 mph85%30.10 "Hg8 mi
10:00 PM47 °FOvercast.2 mph85%30.10 "Hg8 mi
9:00 PM48 °FOvercast.2 mph83%30.10 "Hg17 mi
8:00 PMN/APassing clouds.7 mphN/AN/A9 mi
Weather by CustomWeather, © 2014

See weather overviewHow to use our weather pages